sat.trackr.live / text

‹ back to catalog

STARLINK-30350

NORAD 57746 · 2023-131Q

PAYLOAD ACTIVE UNKNOWN

§ Identity

Operator
Country
US
Launch date
2023-09-01
Launch site
AFETR
Launch vehicle
Mass (kg)
RCS (m²)

Purposes: comms

External: N2YO · Heavens-Above · Gunter

§ Orbital elements

Epoch: 2026-09-20T23:34:47.246592Z

Period
94.27 min
Inclination
43.0047°
Eccentricity
0.0000977
Mean motion
15.27584733 rev/d
Perigee alt
482.4 km
Apogee alt
483.7 km
Semi-major
6,861.2 km
B*
-5.6571e-5
RAAN
146.1526°
Arg perigee
285.8413°
Mean anomaly
74.2331°
Rev number
16,982

§ Raw data

STARLINK-303501 57746U 23131Q   26263.98249128 -.00001819  00000+0 -56571-4 0  99992 57746  43.0047 146.1526 0000977 285.8413  74.2331 15.27584733169829

JSON: /api/v1/satellites/57746 · /tle

For live sub-satellite position, see the globe view (requires WebGL).

§ Visibility from observer

Set your observer location to see the next 7 days of passes ≥ 10°. The values pass through the URL so the page stays shareable.

No JS? Fill the form by hand. The geolocation button needs JavaScript.